Wind_Speed
136 137 137 137 138 138 139 139 140 140 140 140 141 141 141 140 140 140 140 140 140 139 139 138 138 138 137 137 137 137 137 137 137 137 136 136 136 135 135 134 134 134 134 133 133 132 132 131 130 130 129 128 127 126 125 124 123 122 121 121 120 120 120 119 117 113 111 112 112 112 112 112 111 111 111 111 111 111 111 110 110 109 109 109 108
139 139 139 139 140 140 140 140 141 141 142 142 142 143 143 143 143 142 142 142 142 142 141 141 141 140 140 140 140 140 141 141 141 141 141 141 140 140 139 138 137 137 137 136 135 134 134 133 132 131 131 131 130 128 127 126 125 125 124 123 122 122 122 122 120 118 115 114 115 115 114 114 113 113 113 113 113 113 113 112 112 112 111 111 111
141 141 142 142 142 142 142 142 143 143 143 143 144 144 144 144 144 144 144 144 144 144 143 143 143 143 143 142 142 143 143 143 143 144 144 144 144 143 142 142 142 141 140 139 139 138 137 136 134 134 133 133 132 131 130 129 127 126 126 126 125 124 123 123 123 121 118 117 117 117 117 117 116 116 116 116 116 115 115 115 115 115 114 113 113
141 142 142 143 143 144 144 145 145 145 145 146 146 146 146 146 146 146 146 146 146 146 146 146 145 145 145 145 145 145 144 145 145 145 145 145 145 144 144 143 144 143 143 142 142 141 140 139 138 137 137 136 135 134 133 132 131 129 128 127 126 126 125 125 124 123 121 119 118 118 119 119 119 118 119 119 119 119 119 119 119 119 119 118 118
142 143 143 144 144 145 145 146 146 146 147 147 148 148 148 149 149 149 149 148 148 148 148 148 147 147 147 147 147 147 147 147 147 147 147 147 146 146 145 144 144 144 143 143 143 142 142 141 141 141 140 140 139 138 137 136 135 133 132 130 129 128 127 126 126 125 123 121 119 119 120 120 120 120 120 121 121 121 121 121 121 121 121 122 122
142 144 144 145 145 146 146 147 147 147 148 148 149 149 150 150 150 150 150 150 150 150 150 150 149 149 149 149 149 148 148 149 149 149 149 148 148 148 147 146 145 145 145 144 144 143 143 142 142 143 143 142 142 141 141 140 139 138 136 135 134 133 132 130 129 128 127 125 122 121 121 121 122 122 122 122 122 122 121 121 121 121 121 122 122
143 144 145 146 146 147 148 148 149 149 150 150 150 151 151 151 152 152 152 152 152 152 152 152 152 151 151 151 151 151 150 150 151 151 151 151 150 150 150 149 148 147 147 146 146 145 145 145 145 145 145 145 144 144 143 143 143 142 140 139 138 137 136 134 133 132 131 129 127 124 123 123 123 123 123 125 125 124 122 122 122 121 121 121 121
145 145 146 147 148 148 149 150 150 151 151 152 152 153 153 153 154 154 154 154 154 154 154 154 154 154 154 154 154 153 153 153 153 153 153 153 153 153 152 152 151 150 150 149 148 148 148 148 148 148 148 148 148 147 147 147 147 146 145 144 143 142 140 138 137 136 135 134 132 130 128 127 126 125 126 127 127 127 126 127 126 124 123 123 123
147 147 148 149 149 150 151 151 152 153 153 154 154 155 155 155 155 156 156 156 156 156 156 156 156 156 156 156 156 156 156 155 156 156 156 155 155 155 155 154 154 153 153 152 152 151 151 150 150 150 150 150 150 150 151 151 150 149 149 148 148 146 144 142 141 140 139 138 137 135 133 132 130 129 130 131 131 131 130 130 130 127 126 126 126
148 149 150 150 151 152 152 153 153 154 154 155 156 156 156 157 157 157 157 158 158 158 158 158 158 158 158 157 157 158 157 157 158 158 158 157 157 157 156 156 156 155 155 154 154 154 153 153 153 153 152 152 152 152 152 152 152 152 151 150 150 149 148 146 144 143 143 142 140 139 138 136 134 134 135 136 136 136 135 134 133 132 130 129 128
151 151 152 152 153 153 154 154 155 155 156 156 157 157 157 158 158 158 158 159 159 159 159 159 159 159 159 159 159 159 159 159 160 160 159 159 159 159 158 157 157 157 156 156 155 155 155 155 155 154 154 154 154 154 154 154 154 154 153 152 151 150 149 148 147 146 146 145 143 142 140 138 137 137 138 139 139 140 139 138 137 136 135 133 130
152 153 154 154 155 155 155 156 157 157 157 158 158 158 159 159 159 159 159 159 160 160 160 160 160 160 160 160 160 160 160 161 161 161 161 161 161 160 160 159 158 158 157 157 156 156 156 156 156 156 156 156 156 156 155 155 155 155 154 153 152 151 151 150 149 148 147 147 145 143 142 141 140 140 141 142 142 142 142 141 141 140 138 136 134
153 154 155 155 156 156 157 157 158 158 158 159 159 159 160 160 160 160 160 160 160 160 160 160 160 160 160 160 160 160 161 161 162 162 162 162 162 162 161 160 159 159 158 158 157 157 157 157 157 157 157 157 157 157 157 157 156 156 155 155 154 153 152 151 150 149 149 148 147 145 143 143 143 143 143 144 145 144 143 143 143 142 141 139 137
152 153 154 155 156 157 157 158 158 159 159 160 160 160 160 161 161 161 161 161 161 161 161 161 161 161 161 161 161 161 161 162 162 162 162 162 162 162 162 161 161 160 160 159 159 158 158 158 158 158 158 159 159 159 159 159 158 157 157 157 156 155 155 154 153 153 152 151 149 147 146 146 146 146 146 146 147 147 145 144 144 143 142 140 138
150 152 153 154 155 156 156 157 158 158 159 159 160 160 160 160 160 160 161 161 161 161 161 162 162 162 162 162 162 162 162 163 163 163 163 163 163 163 162 162 161 161 161 160 160 159 159 159 159 159 159 159 160 161 161 161 160 159 159 158 158 158 157 157 157 157 156 155 153 150 149 148 149 150 149 149 150 150 149 147 146 145 144 143 141
147 148 150 151 152 153 154 154 155 156 157 157 157 158 158 158 158 158 158 158 159 159 159 159 160 160 161 161 161 161 162 162 163 163 164 164 164 163 163 162 162 162 162 161 161 160 160 160 160 160 160 160 161 162 162 162 161 160 160 160 159 158 158 158 159 159 159 158 156 154 152 151 151 152 152 152 153 153 153 151 150 148 148 147 145
143 145 146 148 149 150 150 151 152 153 153 154 154 155 155 155 155 155 155 155 155 156 156 156 156 157 158 158 159 159 159 160 161 162 162 162 163 163 162 162 162 162 162 161 161 161 161 161 161 161 160 160 161 162 162 162 162 161 160 160 159 158 158 158 159 160 160 160 158 157 156 154 153 153 153 154 154 155 156 155 153 152 151 150 148
138 140 142 144 145 146 147 147 148 148 149 149 150 150 151 151 151 151 151 151 151 152 152 152 152 153 153 154 154 154 155 156 157 158 159 159 160 160 160 159 159 159 160 160 160 160 160 160 161 161 160 160 160 161 161 162 161 161 160 159 159 158 157 157 158 159 160 160 159 158 157 156 155 154 154 154 155 156 157 156 154 153 153 152 150
133 135 137 139 140 141 142 142 143 143 143 144 144 144 145 145 145 146 146 146 146 146 146 147 147 148 148 149 149 149 150 150 151 153 154 154 155 155 155 154 154 154 155 155 156 157 157 157 158 158 159 159 159 159 160 160 160 159 159 158 157 156 156 156 158 158 158 158 158 157 156 155 155 155 154 154 155 155 156 155 154 153 152 152 151
128 130 132 134 135 136 137 137 137 138 138 138 138 138 139 139 139 139 139 139 139 139 140 140 141 142 142 143 144 144 144 145 146 147 148 149 149 149 148 148 147 148 148 149 149 150 151 152 152 153 154 154 154 155 156 156 156 156 155 155 154 154 154 154 155 155 155 155 155 155 155 154 154 154 154 154 154 154 154 153 152 152 151 150 150
125 127 129 130 132 132 133 134 134 134 134 134 134 134 134 133 134 134 134 134 134 134 134 134 135 135 136 137 138 138 139 139 140 141 143 143 144 143 143 142 142 142 142 142 143 144 144 145 146 146 147 148 148 149 149 150 151 151 150 150 149 149 149 149 149 150 151 151 152 152 152 152 152 152 152 152 152 152 152 151 150 149 148 148 147
121 123 125 126 128 129 130 130 131 131 131 131 131 131 131 131 131 131 131 130 130 130 130 130 130 130 131 132 132 133 133 134 135 136 137 138 139 138 138 138 138 137 137 137 137 138 139 139 140 141 141 142 142 142 143 144 145 145 145 144 144 144 144 143 143 143 144 145 146 146 146 147 147 148 149 149 149 149 149 149 148 147 146 145 145
118 118 119 121 122 123 124 125 126 126 126 126 126 127 127 128 129 129 129 129 129 129 129 128 128 128 128 129 129 129 129 130 131 131 133 133 134 134 134 134 134 133 133 133 132 133 134 134 135 135 136 136 136 136 137 137 138 139 139 139 139 139 139 138 138 138 138 139 139 139 140 140 141 142 143 143 144 144 144 144 144 144 144 143 142
117 117 117 117 117 117 118 119 120 121 121 121 121 121 121 122 122 124 125 125 125 126 126 126 127 127 127 128 128 128 128 128 129 129 130 130 130 130 130 130 130 130 129 129 129 129 130 131 131 131 131 131 131 131 132 132 133 133 133 133 133 134 134 134 133 133 133 133 133 134 134 135 135 136 136 137 137 138 138 138 139 139 139 138 137
115 116 116 115 115 114 113 113 114 114 115 116 116 116 116 116 116 117 118 118 119 119 120 121 121 122 123 124 125 126 127 127 128 129 129 129 129 129 129 128 128 127 126 126 126 126 126 127 127 127 128 128 128 128 128 128 129 129 129 129 129 129 129 129 129 129 129 128 128 128 129 129 130 130 130 130 131 131 132 132 133 133 133 133 132
112 112 113 113 113 112 111 110 109 109 109 109 110 111 111 112 112 113 113 113 113 113 113 114 114 116 117 118 119 121 122 123 124 125 127 127 127 128 128 127 127 126 126 125 124 124 124 124 124 124 124 124 124 124 124 125 125 125 126 126 126 126 126 126 127 127 126 126 125 125 125 125 125 125 125 125 125 125 125 126 126 127 127 127 127
107 107 108 109 109 109 108 107 106 105 104 104 104 104 105 106 107 108 109 109 109 109 109 109 109 110 111 112 113 114 115 117 118 120 121 122 123 124 124 125 125 125 124 124 124 124 124 123 123 122 122 122 122 122 121 121 121 122 122 122 122 122 122 122 123 123 123 123 123 122 122 122 122 122 122 122 122 121 122 122 122 123 123 123 123
101 102 103 103 103 103 103 103 103 102 101 100 99 99 100 100 102 103 104 105 105 106 106 106 106 106 107 108 109 110 111 112 112 114 115 116 117 118 119 119 120 120 121 121 121 121 122 122 122 121 121 120 120 120 120 120 119 120 120 120 119 119 119 119 119 119 119 119 119 119 119 119 119 119 119 119 118 118 119 119 120 120 120 121 121
95 96 96 96 96 96 97 97 98 97 97 97 97 96 96 96 97 98 99 100 101 101 102 102 103 103 104 104 105 106 107 109 109 109 110 111 112 112 113 114 114 115 115 115 116 116 117 117 118 118 118 118 118 118 118 118 118 118 118 118 118 118 118 118 118 117 117 117 116 116 116 115 115 115 114 114 114 114 115 116 116 117 118 118 119
89 90 90 90 90 90 91 92 92 92 92 92 93 93 93 93 93 93 94 96 97 97 97 97 98 99 100 101 102 103 104 105 106 107 107 108 108 109 109 110 110 110 110 110 110 110 111 111 112 112 112 112 112 112 113 113 114 114 115 115 115 115 116 116 117 116 116 116 116 115 115 114 114 113 112 112 111 112 112 112 112 112 113 114 115
84 84 85 85 85 86 86 87 87 88 88 88 88 89 90 91 91 91 91 92 93 94 94 94 94 94 95 96 98 99 100 102 103 104 105 105 106 106 107 107 108 108 107 107 107 107 107 107 107 107 107 107 107 107 107 108 108 109 109 110 110 111 112 113 114 114 114 114 114 114 114 114 113 113 112 111 111 111 111 111 110 110 110 110 111
80 80 81 81 82 82 83 83 84 84 84 84 85 85 86 87 89 90 90 89 90 91 92 92 91 91 91 92 94 96 97 98 99 100 101 102 102 103 103 104 104 104 104 103 104 104 104 103 103 103 102 102 102 102 102 102 102 103 103 104 105 106 106 107 109 110 111 111 111 111 111 112 111 111 111 110 110 110 110 110 109 109 108 109 110
78 78 78 78 79 80 80 80 80 80 81 81 81 82 82 83 84 86 88 88 88 88 88 88 88 87 87 87 88 89 91 93 94 95 95 96 97 97 98 99 99 99 99 98 98 99 99 99 98 98 97 97 97 97 97 97 97 97 97 98 98 99 100 101 102 104 105 106 106 107 107 108 108 108 108 108 108 108 108 108 108 108 107 107 108
76 76 76 76 77 78 78 78 78 78 78 78 78 79 79 79 80 81 83 85 86 86 85 84 83 83 83 83 83 84 85 87 89 90 90 90 91 92 92 93 94 95 94 93 93 94 94 94 94 93 93 93 93 93 92 92 92 92 92 92 92 93 94 95 95 97 98 98 99 100 101 102 103 103 104 103 103 104 104 104 105 105 105 105 106
75 75 75 75 75 76 76 76 76 76 76 76 76 76 77 77 77 78 79 80 82 83 84 83 82 80 80 79 79 80 81 83 84 85 86 86 87 87 88 89 90 90 90 90 89 89 90 90 90 90 89 89 89 89 89 88 88 88 88 88 88 88 89 89 90 91 92 92 93 93 94 95 96 97 97 97 97 98 98 99 100 100 100 100 101
75 74 74 74 74 74 75 75 74 74 74 75 75 75 75 75 75 76 77 78 79 80 82 82 82 81 79 78 78 78 79 79 80 81 82 82 83 84 84 85 86 87 87 87 86 86 86 87 87 87 87 86 86 86 85 85 85 85 84 84 84 84 85 85 86 87 87 88 88 88 89 90 90 91 91 91 91 92 93 93 94 94 94 94 95
75 74 74 73 73 73 73 73 73 73 73 73 73 74 74 74 74 74 75 76 77 77 79 80 81 80 79 78 77 77 77 78 78 78 78 79 79 80 81 82 83 83 84 84 83 83 83 83 84 84 84 84 84 83 83 82 82 81 81 81 81 81 82 82 82 83 84 84 84 84 84 85 86 86 87 86 87 88 88 88 88 89 89 89 89
75 74 73 73 73 73 73 72 72 72 71 72 72 72 72 73 73 73 74 74 75 76 76 77 78 78 78 78 77 76 76 76 76 76 76 76 76 77 77 78 79 80 80 81 81 80 80 80 80 80 81 81 81 81 80 80 79 78 78 78 78 78 79 79 79 80 80 81 81 81 81 81 82 82 82 83 83 84 84 84 84 84 84 85 85
75 74 73 73 72 72 72 72 71 71 71 71 71 71 71 71 72 72 73 73 74 74 74 75 76 76 76 76 76 76 76 75 75 74 74 74 73 73 74 74 75 76 77 77 78 78 78 78 77 77 78 78 78 78 78 78 77 76 75 75 75 75 76 76 77 77 77 78 78 78 78 78 78 79 79 79 80 80 81 81 81 81 81 81 82
75 74 73 72 71 71 71 70 70 70 70 70 70 70 70 70 71 71 72 72 72 73 73 73 74 74 74 74 74 75 75 75 74 73 73 73 72 71 71 71 71 72 73 74 74 75 75 75 74 74 75 75 75 75 75 75 75 74 73 72 72 72 72 73 74 75 75 75 75 76 75 75 75 76 76 76 77 77 77 78 78 78 78 78 79
75 74 74 72 71 70 70 70 69 69 69 69 69 69 69 70 70 70 70 71 71 71 72 72 72 72 72 72 72 72 73 74 74 73 72 71 71 70 69 68 68 68 69 70 71 72 72 72 71 71 71 72 72 72 72 72 72 72 71 70 70 69 69 70 71 72 72 72 72 73 73 73 72 73 73 73 74 74 74 75 75 75 75 75 76
75 74 74 73 71 70 70 69 69 69 69 68 68 68 68 69 69 69 69 69 69 69 70 70 70 70 70 70 70 70 70 70 71 71 71 70 70 69 68 67 66 65 65 66 67 68 69 69 69 68 68 69 69 69 69 69 68 68 68 68 68 67 67 67 68 68 69 69 69 69 70 70 70 70 70 70 71 71 72 72 72 72 73 73 73
74 74 73 72 71 71 70 69 69 69 68 68 68 68 67 67 68 68 68 68 68 68 68 68 69 69 68 68 67 67 67 67 68 68 68 68 68 68 67 66 65 64 63 62 63 64 65 66 66 66 66 66 66 66 66 65 65 65 65 65 65 65 65 65 65 65 66 67 67 67 67 67 67 67 67 67 68 68 69 69 69 70 70 70 71
74 73 72 71 71 70 69 68 68 68 68 67 67 67 67 66 67 67 67 66 66 66 66 66 66 66 67 66 65 65 65 65 65 65 65 65 65 65 65 65 64 63 62 61 60 61 62 62 63 63 63 63 64 64 64 63 62 62 62 62 62 62 63 63 63 63 63 64 64 64 64 64 64 64 64 65 65 65 66 66 67 67 68 68 69
74 73 72 71 70 69 69 68 67 67 67 66 66 67 66 66 66 66 66 66 65 65 64 64 63 64 64 64 64 63 62 62 62 62 62 62 63 63 63 63 62 62 61 60 59 59 59 59 60 60 60 60 61 61 62 61 60 60 60 60 60 60 60 61 61 61 61 61 61 61 61 61 62 62 62 62 63 63 63 64 64 65 65 66 67
74 73 71 70 70 69 69 68 67 67 66 66 65 65 65 65 64 64 64 64 64 64 64 63 62 62 62 62 62 62 61 60 60 59 59 59 59 60 61 61 61 60 60 59 58 58 57 57 57 57 57 58 58 58 59 59 59 58 58 58 58 57 57 58 58 59 59 59 59 59 59 59 59 60 60 60 60 61 61 62 62 63 63 64 65
74 73 71 70 69 68 68 67 67 67 66 65 65 64 64 63 63 62 62 62 62 62 62 62 62 61 61 61 60 60 60 59 58 58 57 56 56 57 58 58 59 59 58 58 57 57 56 55 55 55 55 55 55 56 56 57 57 56 56 56 56 55 55 55 56 56 56 57 57 57 57 57 57 58 58 58 58 59 59 60 60 61 61 62 62
75 73 72 71 69 68 68 67 66 66 65 65 64 64 63 62 62 61 61 60 59 59 59 60 61 61 60 60 59 58 58 58 57 57 56 55 55 55 55 56 56 56 56 56 56 56 55 54 53 53 53 52 52 53 54 54 55 54 54 54 54 54 53 53 53 54 54 54 55 55 55 55 56 56 56 56 56 57 58 58 58 59 59 59 60
75 73 72 71 70 69 68 67 66 65 64 64 64 63 63 62 61 61 60 59 59 58 57 57 58 58 58 59 58 57 57 57 56 56 55 55 54 53 53 53 53 54 54 54 54 54 54 53 52 51 51 51 50 51 51 52 53 53 53 53 53 53 52 51 51 52 52 52 53 53 53 54 54 54 54 54 55 55 56 56 57 57 57 58 58
75 73 72 71 70 69 68 67 66 65 64 63 63 62 62 61 60 60 59 59 58 57 57 56 55 55 56 56 57 57 56 55 55 54 54 53 53 53 52 52 51 51 52 52 52 52 52 52 51 51 49 49 49 49 49 50 51 52 51 51 51 51 51 50 50 50 50 50 51 51 52 52 52 52 53 53 54 54 54 55 55 56 56 56 56
74 72 71 70 69 68 68 67 66 65 64 63 62 61 61 61 60 59 58 57 57 57 56 56 55 54 53 53 54 55 55 54 54 53 52 52 52 52 51 51 50 50 50 50 51 51 50 50 50 49 48 47 47 47 47 48 49 50 50 50 50 50 49 49 48 48 48 49 49 50 50 51 51 51 51 52 52 53 53 53 54 54 54 54 55
Wind_Direction
261 262 262 263 263 263 264 264 265 265 265 265 266 266 267 267 268 269 269 270 270 271 271 272 272 272 272 272 272 272 272 272 272 272 272 272 273 273 273 273 273 273 273 273 273 274 274 274 274 274 274 274 273 273 273 272 272 272 271 271 271 271 271 271 271 270 270 269 269 269 270 270 271 271 271 271 272 272 272 272 272 272 272 272 273
262 262 262 263 263 263 264 264 264 265 265 265 266 266 266 266 267 267 268 269 269 270 270 271 271 271 272 272 272 272 272 272 272 272 273 273 273 273 273 273 273 273 273 273 273 273 273 273 273 273 273 273 273 273 273 272 272 272 272 271 271 271 271 271 271 271 270 269 269 269 269 269 269 269 270 270 270 270 270 270 270 271 271 271 271
262 263 263 263 263 263 263 264 264 264 265 265 266 266 266 266 267 267 267 267 268 268 269 269 270 270 271 271 271 272 272 272 272 273 273 273 273 273 273 273 273 273 273 273 273 273 273 273 272 272 272 273 273 273 273 272 272 272 272 272 271 271 271 270 270 270 270 269 269 269 269 269 269 268 269 269 268 268 268 268 269 269 269 269 269
263 263 263 263 264 264 264 264 264 264 264 265 265 265 266 266 266 267 267 267 267 268 268 268 269 269 269 270 270 271 271 271 272 272 272 273 273 273 274 274 274 274 274 274 274 274 273 273 273 273 272 272 272 272 272 272 272 271 271 271 271 271 271 271 271 270 270 269 269 269 269 269 269 269 269 269 269 268 268 268 268 268 268 268 268
263 263 263 264 264 264 264 264 265 265 265 265 265 265 265 266 266 266 266 267 267 267 267 268 268 268 268 269 269 269 270 270 270 271 271 272 272 272 273 273 273 274 274 274 274 274 274 274 274 274 274 273 273 273 273 272 272 272 271 271 271 271 271 270 270 270 270 269 269 268 268 269 269 269 269 268 268 269 269 269 269 268 268 268 268
263 263 264 264 264 264 264 265 265 265 265 265 265 265 266 266 266 266 266 266 266 267 267 267 267 267 267 268 268 268 268 269 269 269 270 270 271 271 271 271 272 272 273 273 273 274 274 274 274 274 274 274 274 274 274 274 274 273 273 273 272 272 272 271 271 270 270 269 268 267 267 267 267 267 267 267 267 267 267 268 268 268 268 269 269
263 263 263 264 264 264 264 265 265 265 265 265 265 266 266 266 266 266 266 266 266 266 267 267 267 267 267 267 267 267 267 268 268 268 268 269 269 269 270 270 270 270 271 271 271 272 272 272 272 273 273 273 274 274 274 274 274 274 274 274 274 273 273 273 273 272 272 271 270 268 267 267 267 266 266 266 266 266 266 266 266 266 267 268 268
263 263 263 264 264 264 264 264 265 265 265 265 265 266 266 266 266 266 266 267 267 267 267 267 267 267 267 267 267 267 267 267 267 267 268 268 268 268 269 269 269 269 269 269 269 270 270 270 270 270 271 271 272 272 273 273 273 274 274 274 274 274 274 273 273 273 273 273 272 271 270 269 269 268 268 268 268 268 267 267 266 266 267 267 267
264 264 264 264 264 264 264 264 264 265 265 265 265 265 266 266 266 266 266 266 267 267 267 267 267 267 267 267 267 267 267 267 267 267 267 267 267 268 268 268 268 269 269 269 269 269 269 269 269 269 269 269 270 270 270 271 271 272 272 272 273 273 273 273 273 273 272 272 272 272 272 271 271 271 270 270 270 270 269 269 268 268 268 268 268
265 265 265 265 265 265 265 265 265 265 265 265 265 265 265 265 266 266 266 266 266 267 267 267 267 267 267 267 267 267 267 267 267 267 267 267 267 267 268 268 268 268 269 269 269 269 269 269 269 269 269 269 269 269 270 270 270 270 271 271 271 272 272 272 272 272 272 272 272 271 271 271 271 271 271 270 270 270 270 270 270 270 269 269 269
266 266 266 266 266 266 266 266 265 265 265 265 265 265 266 266 266 266 266 266 266 266 267 267 267 267 267 267 267 268 268 268 268 268 268 268 268 268 268 268 268 268 268 269 269 269 269 269 270 270 270 270 270 270 270 270 270 270 271 271 271 271 272 272 272 272 272 272 271 271 271 271 271 271 270 270 270 270 270 270 270 270 270 269 269
267 267 267 267 267 267 266 266 266 266 266 266 266 266 266 266 266 266 266 266 266 266 267 267 267 267 267 267 267 268 268 268 268 268 268 268 269 269 269 268 268 269 269 269 269 269 269 269 270 270 270 270 270 270 270 270 270 271 271 271 271 271 271 271 271 271 271 272 272 271 272 271 271 270 270 270 270 269 269 270 270 270 270 270 270
268 268 268 268 267 267 267 267 267 267 267 267 267 267 267 267 267 267 267 267 267 267 267 267 267 267 267 267 267 268 268 268 268 268 268 269 269 269 269 269 269 269 269 269 269 269 269 269 269 269 270 270 270 270 270 270 270 271 271 271 271 271 272 272 271 271 271 271 271 271 271 271 271 270 270 270 270 270 270 270 270 270 270 270 270
268 268 268 268 268 268 268 268 268 268 268 268 267 267 267 267 267 267 267 268 268 268 268 268 268 268 268 268 268 268 268 268 268 268 268 268 268 269 269 269 269 269 269 269 268 268 269 269 269 269 269 269 269 270 270 270 270 270 270 271 271 271 271 271 271 271 271 271 271 271 271 271 271 271 270 270 270 270 270 270 270 270 270 270 270
268 268 268 268 268 268 268 268 268 268 268 268 268 268 268 268 268 268 267 267 268 268 268 268 268 268 268 268 268 268 268 269 269 269 269 269 269 269 269 269 269 269 269 268 268 268 268 268 268 268 268 268 268 268 269 269 269 269 269 269 270 270 270 270 271 271 270 270 270 270 270 270 270 270 270 270 270 270 270 270 270 270 270 270 270
269 269 269 269 269 268 268 268 269 269 269 269 269 269 268 268 268 268 268 268 268 268 268 268 268 268 268 268 268 268 268 268 268 268 268 268 268 268 268 268 268 268 268 268 268 268 268 268 268 267 267 267 267 267 267 268 268 268 268 268 268 268 269 269 269 270 270 270 270 270 269 269 269 269 269 269 269 270 270 270 270 270 270 270 270
270 270 270 270 270 269 269 269 269 269 269 269 269 269 269 269 269 269 269 269 269 269 269 268 268 268 268 268 268 268 268 268 268 268 268 268 268 268 268 268 268 268 268 268 268 268 268 267 267 267 267 267 267 267 267 267 267 267 267 267 267 268 268 268 268 268 269 269 269 269 269 269 269 269 269 269 269 269 269 269 269 269 269 269 270
271 271 271 271 271 271 271 270 270 270 270 270 270 270 270 270 270 270 270 270 270 270 270 270 270 269 269 269 269 268 268 268 268 268 268 268 268 267 267 267 267 267 267 267 267 267 267 267 267 267 267 267 267 267 267 267 267 267 267 267 267 267 267 267 267 268 268 268 268 269 269 269 269 269 269 268 268 268 268 269 269 269 269 269 269
272 272 272 272 272 272 272 272 272 271 271 271 271 271 271 271 271 271 271 271 271 271 271 271 271 270 270 270 270 270 269 269 269 269 268 268 268 268 268 267 267 267 267 267 267 267 267 267 267 267 267 267 267 267 267 267 267 267 267 267 267 267 267 267 267 267 267 268 268 269 269 269 269 269 268 268 268 268 268 269 269 269 269 269 269
272 272 272 272 273 273 273 273 273 273 273 272 272 272 272 272 272 272 272 272 271 271 271 271 271 271 271 271 270 270 270 270 270 270 269 269 269 269 269 268 268 268 267 267 267 267 267 267 267 267 267 267 267 267 267 267 267 267 267 267 267 267 266 266 266 267 267 267 268 268 268 268 269 269 268 268 268 268 268 268 268 269 269 269 269
273 273 273 273 273 273 273 274 274 274 274 274 274 273 273 273 273 272 272 272 272 271 271 271 271 270 270 270 270 270 270 270 270 270 270 270 270 270 269 269 269 268 268 268 268 268 268 267 267 267 267 267 267 267 267 267 267 267 267 267 267 266 266 266 266 266 266 266 266 267 267 267 268 268 268 268 268 268 268 268 268 268 268 268 269
274 274 274 274 274 274 274 274 274 274 274 274 274 274 274 274 273 273 273 272 272 272 271 271 271 270 270 270 270 270 270 270 270 270 270 270 270 270 270 270 269 269 269 269 268 268 268 268 268 268 268 267 267 267 267 267 267 268 268 267 267 267 267 266 266 266 266 266 266 266 266 266 266 267 267 267 268 268 268 268 269 269 269 268 268
277 276 275 275 275 275 275 275 275 275 274 274 273 273 273 273 273 272 272 272 272 272 272 272 271 271 271 271 270 270 270 270 269 269 269 269 269 269 270 270 269 269 269 269 269 268 268 268 268 268 268 268 268 268 268 267 267 267 267 268 268 267 267 267 267 266 266 266 266 266 266 266 266 266 266 266 267 267 267 268 268 268 268 268 268
280 280 279 278 278 277 276 276 275 275 275 274 274 273 273 272 271 271 271 271 271 270 270 271 271 271 271 271 271 271 271 270 270 270 270 270 270 269 269 269 269 269 269 269 269 268 268 268 268 268 268 268 267 267 267 267 267 267 267 267 267 267 267 267 267 267 267 266 266 266 266 266 266 266 266 266 266 267 267 267 267 268 268 268 268
282 282 281 281 281 280 279 278 277 276 275 275 274 274 273 273 272 271 271 270 270 269 269 269 269 269 269 269 269 270 270 270 270 270 270 271 271 271 270 270 270 270 270 269 269 268 268 268 268 268 268 267 267 267 267 267 267 267 267 267 267 267 267 267 267 267 267 266 266 266 266 266 266 266 266 266 266 266 266 267 267 267 268 268 268
282 282 282 282 282 281 281 280 279 277 276 275 275 274 274 273 273 272 272 271 270 270 269 269 268 268 268 268 268 268 268 268 268 269 269 269 270 270 270 270 271 271 271 271 270 270 270 269 269 268 268 268 268 268 267 267 267 267 267 266 266 266 266 266 266 266 266 266 266 266 265 265 265 266 266 266 266 266 266 267 267 267 267 268 268
283 282 282 282 282 282 281 281 280 279 278 277 275 274 274 273 273 273 272 272 272 271 270 270 269 269 269 268 268 268 268 268 267 268 268 268 268 268 269 269 269 270 270 270 270 270 270 270 270 270 269 269 269 269 268 268 268 268 268 267 267 267 266 266 266 266 266 266 265 265 265 264 264 264 265 265 265 265 266 266 266 266 267 267 267
284 283 283 282 282 282 281 281 281 280 280 279 277 276 275 274 273 273 272 272 272 272 271 271 271 270 270 270 270 269 269 269 268 268 268 268 268 268 268 268 268 268 268 269 269 269 269 269 269 269 269 269 269 269 269 269 268 268 268 268 268 268 267 267 267 266 266 266 266 265 265 264 264 264 264 263 263 263 264 264 264 265 265 266 266
285 285 284 283 283 282 282 281 281 281 280 280 279 278 277 276 275 274 273 272 272 271 271 271 271 271 271 271 270 270 270 270 270 270 270 269 269 269 269 269 269 268 268 268 268 268 268 268 268 268 268 268 268 268 268 268 268 268 268 268 268 268 268 268 268 267 267 267 266 266 265 265 264 264 264 263 263 263 262 262 262 263 263 264 264
288 287 286 285 284 284 283 282 282 282 281 281 280 280 279 278 276 275 275 274 273 273 272 271 271 271 271 271 271 271 271 271 271 271 271 271 271 271 271 271 270 270 270 270 269 269 269 268 268 268 268 267 267 267 267 266 266 266 266 266 266 266 267 267 267 267 267 266 266 266 266 266 265 265 264 264 263 263 262 262 262 262 262 262 263
290 289 288 287 287 286 285 284 284 283 282 282 281 281 280 279 278 277 276 275 275 275 274 273 272 272 272 272 272 272 271 271 271 271 271 271 271 271 271 271 271 271 271 271 271 271 270 270 269 269 268 268 268 267 267 266 266 266 265 265 265 265 265 265 265 265 265 265 265 265 265 265 265 265 264 264 264 263 263 263 262 262 262 262 262
293 292 291 290 289 288 287 286 285 285 284 283 282 282 281 281 280 279 278 277 276 276 275 275 274 273 273 273 272 273 273 272 272 272 272 272 272 272 272 272 272 272 271 271 271 271 271 271 270 270 270 269 269 268 268 267 266 266 265 265 265 264 264 264 264 264 264 264 264 264 264 264 264 264 263 263 263 263 263 262 262 262 261 261 261
296 295 294 293 292 291 290 289 288 287 286 285 284 283 283 282 282 282 281 280 279 277 277 276 276 275 274 274 273 273 273 273 273 273 273 272 272 272 272 272 272 272 272 272 272 272 272 271 271 271 270 270 270 269 269 268 267 267 266 265 265 264 264 263 263 263 263 263 263 263 263 263 263 263 262 262 262 262 262 262 262 261 261 260 260
299 297 296 295 294 293 292 291 290 289 288 287 286 286 285 284 283 283 283 283 282 281 279 278 277 276 276 275 275 274 274 274 274 273 273 273 273 273 273 273 273 273 273 272 272 272 272 272 272 271 271 270 270 270 269 269 268 267 267 266 265 265 264 264 263 263 263 262 262 262 262 262 262 262 262 262 261 261 261 261 261 260 260 260 259
301 300 299 297 296 295 294 293 292 291 290 289 288 287 287 286 285 284 284 284 283 283 282 281 280 279 277 277 276 275 274 274 274 274 274 274 274 274 273 273 273 273 273 273 273 273 273 272 272 272 271 271 270 270 269 269 269 268 267 267 266 265 265 264 264 263 263 262 262 262 261 261 261 261 261 261 261 261 260 260 260 260 259 259 259
304 302 300 299 298 296 295 294 293 293 292 291 290 289 288 287 287 286 285 284 284 284 283 283 282 281 280 279 278 277 276 275 274 274 274 274 274 274 274 274 274 274 274 274 273 273 273 273 273 272 272 272 271 270 270 269 269 269 268 267 267 266 265 265 264 264 263 262 262 261 261 261 261 261 261 260 260 260 260 259 259 259 259 259 259
305 304 302 301 299 298 296 295 295 294 293 292 291 291 290 289 288 287 286 285 285 284 284 283 283 283 282 281 280 279 278 277 276 275 275 274 274 274 274 274 274 274 274 274 274 273 273 272 272 272 272 272 271 271 270 270 269 268 268 268 267 266 266 265 264 264 263 263 262 262 261 261 261 261 260 260 260 259 259 259 259 259 259 259 258
307 305 304 302 301 299 298 297 296 295 294 293 292 292 291 290 289 288 287 286 285 284 284 284 283 283 283 283 282 280 279 278 277 277 276 275 274 274 274 274 274 274 274 274 274 274 273 273 272 272 272 272 272 271 271 270 269 269 268 267 267 266 266 265 264 264 263 263 262 262 261 261 260 260 260 260 260 259 259 259 259 259 258 258 258
308 306 305 303 302 301 300 299 298 297 296 295 294 293 292 291 290 289 288 287 286 285 284 284 283 283 283 283 283 282 281 280 279 278 277 276 275 274 274 274 274 274 274 274 274 273 273 273 272 272 272 272 272 271 271 271 270 269 268 268 267 266 266 265 265 264 263 263 262 262 261 261 260 260 260 259 259 259 259 259 258 258 258 258 258
309 307 306 304 303 302 300 299 298 297 297 296 295 294 293 291 290 289 288 287 287 286 285 284 284 283 283 283 282 282 282 281 280 279 278 277 276 275 274 274 273 274 274 274 274 273 273 273 272 272 272 271 271 271 271 271 270 270 269 268 267 266 265 265 264 264 263 262 262 261 261 261 260 260 259 259 259 259 258 258 258 258 257 257 257
310 308 307 305 304 303 301 300 299 298 297 296 295 294 293 292 291 290 289 288 287 286 286 285 284 284 283 283 282 282 281 281 281 281 280 279 278 277 276 274 274 273 273 274 274 274 273 273 272 272 271 271 271 271 270 270 270 270 269 268 267 266 265 264 263 263 262 262 261 261 260 260 260 259 259 259 258 258 258 258 258 257 257 257 257
311 309 308 306 305 304 303 302 301 300 298 297 296 295 294 293 292 291 290 289 288 287 286 285 285 284 283 283 282 281 281 281 281 281 281 280 279 279 278 276 275 274 273 273 273 273 273 273 273 272 272 271 271 270 270 269 269 269 268 268 267 266 265 263 263 262 262 261 261 260 260 259 259 258 258 258 258 258 257 257 257 257 256 256 256
311 310 309 307 306 305 304 303 302 301 300 299 298 296 295 294 293 292 290 289 288 288 287 286 285 285 284 283 282 282 281 281 280 281 280 280 280 280 279 278 277 276 275 274 273 273 273 273 273 272 272 271 271 270 270 269 269 268 268 267 266 266 265 264 262 261 261 261 260 260 259 259 258 258 257 257 257 257 256 256 256 256 255 255 255
312 310 309 308 307 306 304 304 303 302 301 300 299 297 296 295 294 293 292 290 289 288 287 287 286 285 284 284 283 282 281 281 281 280 280 280 280 280 280 279 278 278 276 275 274 273 272 272 272 272 272 271 271 271 270 269 268 268 267 266 266 265 264 264 263 262 261 260 260 259 259 258 258 257 256 256 256 256 255 255 255 254 254 254 254
313 311 310 309 308 307 305 304 303 302 301 300 299 298 297 296 295 294 293 292 291 290 289 288 287 286 285 284 284 283 282 281 281 280 280 280 280 280 280 280 279 278 278 277 275 274 273 272 272 271 271 271 270 270 270 270 269 268 267 266 265 264 264 263 262 262 261 260 259 259 258 258 257 256 256 255 255 254 254 254 254 253 253 253 252
314 312 311 310 308 307 307 306 305 303 302 301 300 299 298 297 295 294 294 293 292 291 290 289 288 287 286 285 285 284 283 282 282 281 280 280 280 280 280 279 279 279 278 277 276 275 274 273 272 271 271 270 270 270 270 269 269 268 267 266 265 264 263 262 262 261 261 260 259 258 258 257 256 256 255 254 254 254 253 253 253 253 252 252 252
314 313 311 310 309 308 307 306 305 305 303 302 301 300 298 297 296 295 294 293 292 292 291 290 289 288 287 286 286 285 284 284 283 282 281 280 279 279 279 279 279 279 278 278 277 276 275 274 272 271 270 270 269 269 269 269 268 268 267 266 265 264 263 262 261 260 260 259 259 258 257 256 256 255 254 254 253 253 253 252 252 252 252 251 251
315 314 312 311 310 309 308 307 306 306 305 304 302 301 300 299 297 296 295 294 293 291 291 290 290 289 288 288 287 286 285 285 284 283 282 281 280 279 279 278 278 278 278 277 277 276 276 275 273 272 271 270 269 269 268 268 268 267 267 266 265 264 263 262 261 260 259 259 258 257 257 256 255 254 254 253 252 252 252 251 251 251 251 251 251
315 314 313 312 311 310 309 308 308 307 306 305 303 302 301 300 298 297 296 295 294 293 291 290 289 289 289 288 288 287 286 285 284 284 283 282 281 280 279 278 278 278 277 277 276 276 276 275 274 273 272 271 270 269 268 268 267 267 266 265 265 264 263 262 261 260 259 258 257 257 256 255 255 254 253 252 252 251 251 250 250 250 250 250 250
315 314 313 313 312 311 310 309 308 307 306 305 304 303 302 300 299 298 297 296 295 294 293 292 290 289 289 288 288 287 286 286 285 284 283 283 282 281 280 279 278 277 277 276 276 275 275 275 274 273 272 271 270 269 268 267 267 266 266 265 264 264 263 262 261 260 259 258 257 256 256 255 254 254 253 252 251 251 250 250 249 250 249 250 250
316 315 314 313 312 311 310 310 309 308 307 306 305 304 303 301 300 299 298 297 296 295 294 293 292 291 290 289 288 287 287 286 285 285 284 283 282 281 281 280 279 278 277 276 276 275 274 274 274 273 272 271 270 269 267 267 266 266 265 265 264 264 263 262 261 260 259 258 258 257 256 255 254 253 252 251 251 250 250 249 249 249 249 249 249
Height
10551 10551 10551 10550 10551 10551 10550 10550 10550 10550 10551 10551 10551 10551 10551 10551 10550 10550 10549 10548 10548 10548 10548 10547 10547 10547 10547 10546 10546 10546 10546 10545 10544 10544 10545 10545 10545 10546 10547 10548 10549 10550 10552 10553 10552 10552 10554 10556 10556 10556 10555 10556 10559 10561 10561 10561 10561 10562 10563 10565 10566 10566 10566 10567 10574 10587 10592 10587 10588 10589 10586 10584 10586 10584 10581 10581 10581 10577 10576 10576 10575 10576 10577 10577 10577
10535 10535 10535 10535 10535 10535 10534 10534 10534 10533 10533 10533 10533 10534 10534 10534 10534 10534 10534 10533 10532 10532 10532 10531 10530 10530 10529 10529 10528 10528 10527 10527 10527 10526 10526 10526 10527 10528 10529 10530 10530 10531 10534 10536 10535 10535 10537 10539 10540 10539 10537 10537 10541 10543 10543 10543 10543 10544 10545 10547 10549 10551 10551 10550 10554 10564 10573 10573 10570 10572 10573 10571 10573 10573 10568 10566 10567 10565 10563 10564 10562 10562 10564 10564 10563
10520 10519 10519 10518 10518 10518 10518 10518 10517 10517 10517 10516 10515 10515 10516 10516 10516 10517 10517 10517 10516 10516 10515 10515 10515 10514 10513 10512 10511 10510 10509 10509 10508 10508 10507 10507 10507 10509 10511 10511 10510 10512 10514 10516 10516 10517 10519 10521 10522 10522 10520 10521 10523 10524 10523 10524 10525 10526 10528 10529 10530 10533 10534 10533 10535 10543 10552 10556 10555 10554 10556 10555 10557 10559 10555 10551 10552 10551 10550 10551 10550 10549 10550 10551 10550
10503 10503 10502 10501 10500 10500 10500 10499 10499 10500 10500 10499 10498 10498 10497 10498 10498 10498 10499 10499 10499 10498 10498 10498 10498 10498 10497 10496 10494 10493 10492 10491 10491 10490 10489 10488 10489 10490 10491 10491 10490 10492 10494 10495 10496 10497 10498 10501 10503 10502 10502 10504 10506 10506 10504 10505 10506 10508 10511 10512 10512 10513 10515 10515 10516 10522 10529 10537 10541 10539 10537 10537 10539 10542 10540 10536 10535 10535 10535 10536 10537 10535 10535 10536 10536
10486 10485 10485 10484 10483 10483 10482 10481 10480 10481 10481 10480 10479 10479 10479 10479 10479 10479 10479 10480 10480 10480 10480 10479 10479 10480 10479 10478 10477 10477 10475 10475 10474 10473 10472 10471 10471 10472 10474 10474 10473 10472 10473 10474 10475 10476 10477 10478 10480 10480 10480 10482 10485 10487 10485 10485 10488 10489 10491 10494 10494 10494 10496 10497 10498 10501 10505 10514 10522 10523 10520 10520 10522 10523 10522 10520 10517 10518 10518 10520 10520 10519 10518 10519 10520
10469 10467 10467 10466 10466 10465 10464 10463 10462 10461 10461 10461 10460 10459 10459 10459 10459 10459 10459 10460 10460 10460 10460 10460 10460 10460 10460 10459 10459 10459 10458 10457 10456 10455 10454 10454 10453 10454 10456 10457 10457 10456 10456 10456 10456 10457 10457 10458 10459 10458 10458 10460 10462 10464 10464 10465 10466 10469 10470 10472 10474 10474 10475 10479 10480 10481 10484 10490 10500 10505 10504 10503 10504 10505 10505 10501 10498 10501 10504 10503 10501 10501 10502 10502 10503
10452 10450 10449 10448 10447 10446 10445 10444 10443 10442 10441 10441 10440 10440 10439 10438 10438 10438 10438 10439 10440 10440 10440 10440 10440 10440 10439 10439 10439 10439 10439 10438 10437 10436 10435 10435 10435 10436 10437 10439 10440 10440 10440 10440 10439 10439 10439 10440 10440 10440 10439 10439 10441 10442 10443 10443 10443 10446 10449 10451 10452 10453 10455 10459 10461 10461 10462 10467 10474 10481 10485 10485 10484 10486 10488 10483 10478 10482 10488 10485 10482 10485 10487 10486 10487
10434 10432 10431 10430 10428 10427 10426 10425 10423 10422 10421 10420 10420 10419 10418 10418 10417 10417 10417 10417 10417 10418 10418 10419 10419 10418 10418 10418 10418 10418 10418 10418 10416 10415 10415 10415 10416 10416 10418 10419 10420 10421 10422 10423 10422 10422 10422 10422 10422 10423 10422 10421 10422 10422 10423 10422 10422 10425 10428 10428 10428 10431 10434 10437 10440 10441 10442 10444 10449 10455 10460 10463 10464 10466 10467 10463 10458 10461 10465 10462 10461 10469 10474 10470 10469
10415 10414 10412 10410 10409 10408 10407 10405 10404 10402 10401 10400 10399 10398 10398 10397 10397 10396 10396 10396 10396 10396 10396 10396 10397 10397 10396 10396 10395 10396 10396 10395 10394 10393 10393 10395 10395 10396 10397 10398 10399 10401 10402 10403 10403 10403 10403 10403 10403 10403 10403 10403 10404 10403 10403 10402 10402 10405 10409 10409 10406 10408 10412 10416 10419 10421 10421 10422 10426 10431 10435 10438 10443 10445 10443 10441 10439 10439 10440 10439 10440 10449 10455 10453 10453
10396 10394 10392 10390 10389 10388 10386 10385 10384 10382 10381 10379 10378 10377 10377 10376 10376 10375 10375 10375 10374 10374 10374 10374 10374 10374 10375 10374 10374 10373 10373 10372 10371 10370 10370 10372 10373 10375 10377 10378 10379 10380 10382 10383 10383 10382 10381 10382 10382 10382 10382 10382 10383 10383 10383 10382 10381 10382 10387 10390 10388 10387 10390 10394 10397 10399 10400 10400 10404 10409 10411 10415 10423 10424 10420 10418 10417 10415 10416 10419 10421 10425 10430 10433 10437
10376 10373 10372 10370 10368 10366 10365 10363 10362 10360 10359 10358 10357 10356 10355 10354 10354 10354 10354 10353 10353 10352 10352 10352 10352 10352 10352 10353 10353 10352 10351 10349 10348 10346 10347 10348 10349 10351 10355 10357 10358 10359 10361 10362 10362 10361 10360 10360 10361 10360 10360 10359 10360 10361 10361 10360 10359 10359 10362 10366 10369 10370 10371 10373 10375 10376 10377 10378 10382 10387 10389 10394 10401 10401 10395 10394 10394 10393 10394 10397 10400 10403 10407 10410 10418
10354 10351 10349 10348 10346 10345 10343 10341 10340 10338 10337 10336 10335 10333 10332 10331 10331 10331 10331 10331 10330 10330 10330 10329 10330 10330 10329 10330 10331 10330 10329 10327 10324 10323 10325 10325 10325 10326 10330 10334 10337 10337 10338 10340 10341 10341 10340 10340 10340 10339 10338 10337 10336 10336 10337 10337 10337 10337 10340 10343 10345 10347 10349 10351 10353 10355 10355 10354 10358 10364 10369 10372 10375 10376 10373 10369 10369 10371 10373 10375 10377 10380 10384 10389 10396
10332 10329 10326 10324 10322 10321 10320 10318 10316 10315 10313 10313 10312 10311 10310 10309 10307 10307 10308 10308 10307 10307 10306 10306 10306 10306 10306 10307 10308 10308 10307 10304 10301 10301 10302 10302 10301 10301 10304 10309 10313 10314 10315 10318 10318 10318 10318 10319 10318 10318 10316 10314 10313 10313 10315 10315 10315 10317 10318 10320 10320 10322 10324 10326 10329 10332 10333 10333 10335 10342 10349 10349 10346 10349 10351 10346 10342 10347 10351 10353 10354 10357 10361 10367 10374
10310 10307 10304 10301 10299 10297 10296 10294 10292 10290 10289 10288 10287 10287 10286 10285 10284 10284 10285 10284 10283 10283 10283 10282 10282 10282 10281 10282 10284 10285 10283 10279 10277 10277 10279 10279 10278 10277 10279 10284 10287 10288 10290 10292 10294 10295 10295 10295 10295 10296 10296 10293 10291 10291 10290 10291 10293 10295 10296 10296 10297 10299 10301 10302 10304 10304 10306 10309 10313 10320 10327 10325 10319 10321 10327 10323 10317 10320 10327 10331 10331 10333 10337 10343 10349
10288 10285 10282 10279 10277 10275 10273 10271 10268 10266 10265 10264 10262 10261 10261 10260 10260 10260 10261 10260 10260 10259 10260 10259 10258 10257 10256 10256 10258 10260 10259 10254 10251 10252 10253 10253 10252 10252 10256 10260 10260 10260 10262 10264 10267 10270 10271 10271 10270 10272 10273 10272 10269 10266 10264 10265 10268 10271 10273 10273 10274 10276 10278 10280 10279 10277 10277 10282 10288 10295 10302 10304 10298 10295 10299 10300 10295 10294 10300 10306 10309 10311 10314 10318 10323
10266 10263 10260 10257 10255 10253 10251 10249 10246 10243 10242 10240 10239 10237 10236 10235 10235 10235 10236 10236 10235 10235 10236 10236 10235 10234 10233 10232 10232 10234 10235 10230 10226 10226 10228 10227 10225 10227 10231 10232 10232 10233 10236 10238 10240 10243 10244 10244 10244 10245 10247 10247 10245 10240 10238 10240 10243 10246 10249 10251 10252 10254 10257 10258 10255 10251 10251 10255 10260 10265 10272 10277 10277 10273 10274 10277 10275 10271 10273 10278 10286 10290 10290 10291 10298
10244 10240 10237 10234 10231 10229 10227 10226 10224 10221 10219 10218 10216 10214 10212 10211 10210 10210 10211 10212 10211 10210 10210 10211 10211 10210 10209 10208 10207 10208 10210 10207 10201 10199 10201 10201 10199 10200 10204 10205 10206 10208 10210 10211 10212 10215 10216 10216 10216 10217 10219 10221 10219 10216 10214 10215 10217 10221 10223 10226 10228 10232 10237 10239 10233 10226 10226 10230 10233 10236 10241 10248 10252 10251 10251 10254 10253 10249 10247 10251 10262 10268 10263 10264 10276
10225 10220 10215 10211 10208 10206 10204 10202 10200 10199 10197 10195 10194 10193 10191 10188 10187 10187 10187 10187 10188 10186 10185 10186 10186 10184 10182 10183 10182 10181 10183 10183 10177 10173 10174 10175 10173 10173 10176 10180 10183 10184 10184 10185 10186 10187 10188 10189 10189 10188 10191 10193 10193 10192 10191 10190 10191 10195 10198 10200 10203 10209 10215 10216 10210 10203 10204 10207 10208 10210 10216 10221 10224 10226 10227 10229 10229 10225 10222 10225 10237 10243 10239 10241 10252
10206 10200 10195 10190 10187 10184 10181 10179 10177 10176 10175 10173 10172 10170 10169 10167 10165 10164 10163 10163 10164 10163 10162 10161 10161 10159 10156 10155 10155 10154 10155 10157 10153 10148 10147 10148 10146 10144 10148 10155 10159 10159 10158 10160 10162 10162 10162 10163 10164 10162 10162 10165 10167 10167 10166 10165 10166 10170 10173 10175 10179 10186 10192 10190 10183 10181 10184 10187 10186 10188 10192 10196 10197 10199 10201 10203 10202 10201 10200 10202 10210 10216 10216 10219 10227
10187 10181 10175 10170 10166 10163 10160 10158 10156 10153 10152 10151 10150 10147 10146 10145 10144 10142 10141 10140 10140 10140 10139 10138 10138 10136 10133 10130 10129 10129 10128 10130 10129 10124 10120 10121 10120 10118 10123 10130 10132 10131 10133 10135 10136 10137 10137 10137 10139 10138 10137 10138 10141 10142 10140 10140 10141 10144 10148 10152 10155 10160 10164 10163 10160 10162 10165 10166 10165 10166 10168 10171 10172 10173 10174 10176 10176 10176 10177 10180 10185 10190 10192 10196 10201
10168 10162 10157 10151 10147 10144 10141 10138 10135 10133 10130 10129 10128 10126 10123 10122 10121 10120 10118 10117 10116 10115 10115 10114 10114 10114 10111 10108 10106 10105 10104 10104 10104 10101 10096 10095 10094 10095 10098 10102 10103 10104 10108 10111 10111 10110 10112 10112 10113 10113 10112 10112 10115 10117 10116 10115 10116 10118 10122 10127 10129 10132 10135 10138 10140 10143 10143 10144 10145 10145 10146 10148 10149 10149 10149 10151 10153 10152 10153 10155 10160 10165 10169 10172 10177
10149 10144 10139 10133 10128 10125 10122 10118 10115 10113 10110 10108 10107 10106 10102 10100 10098 10097 10095 10095 10094 10092 10091 10091 10091 10091 10089 10086 10084 10083 10083 10081 10080 10079 10075 10071 10071 10072 10074 10076 10077 10078 10082 10087 10087 10086 10087 10088 10088 10088 10087 10088 10090 10092 10092 10093 10092 10093 10096 10100 10102 10104 10107 10111 10117 10119 10119 10120 10121 10123 10126 10127 10128 10127 10127 10128 10130 10130 10130 10132 10136 10140 10144 10147 10152
10130 10125 10120 10115 10111 10107 10103 10100 10095 10092 10090 10088 10087 10085 10082 10079 10076 10074 10072 10072 10071 10070 10069 10068 10067 10067 10066 10063 10061 10060 10061 10059 10057 10056 10053 10050 10050 10051 10051 10051 10053 10055 10057 10061 10063 10063 10063 10063 10064 10065 10065 10065 10067 10069 10069 10069 10070 10071 10073 10075 10077 10079 10081 10084 10089 10092 10094 10096 10098 10100 10104 10105 10105 10106 10107 10107 10108 10109 10110 10113 10115 10117 10118 10121 10126
10110 10105 10101 10096 10092 10088 10084 10080 10076 10072 10069 10067 10066 10064 10061 10058 10056 10053 10051 10050 10050 10050 10048 10047 10046 10046 10044 10041 10039 10037 10037 10037 10034 10032 10031 10029 10029 10029 10029 10029 10030 10032 10034 10037 10039 10040 10040 10040 10040 10042 10043 10044 10046 10047 10047 10047 10047 10048 10051 10052 10054 10056 10058 10059 10062 10066 10069 10072 10075 10077 10080 10082 10082 10083 10085 10087 10088 10089 10091 10093 10094 10094 10095 10099 10104
10091 10086 10081 10076 10072 10068 10064 10059 10055 10051 10049 10047 10045 10043 10040 10037 10035 10032 10030 10029 10029 10029 10029 10027 10026 10025 10024 10021 10019 10017 10016 10015 10013 10010 10008 10008 10008 10007 10007 10008 10008 10009 10011 10014 10016 10017 10017 10018 10018 10020 10021 10022 10023 10025 10027 10027 10026 10027 10029 10031 10032 10035 10036 10037 10039 10041 10044 10048 10052 10054 10057 10059 10059 10061 10064 10067 10068 10069 10071 10072 10072 10073 10074 10078 10082
10073 10068 10062 10057 10052 10048 10044 10039 10035 10031 10029 10027 10025 10023 10020 10017 10015 10012 10009 10008 10009 10009 10009 10008 10007 10006 10004 10002 10000 9998 9997 9995 9993 9991 9988 9987 9987 9987 9986 9987 9988 9988 9989 9991 9993 9993 9993 9994 9997 9999 10001 10001 10002 10004 10005 10006 10006 10006 10007 10009 10011 10013 10015 10016 10018 10019 10022 10026 10030 10033 10035 10037 10038 10040 10043 10046 10048 10049 10052 10053 10053 10054 10055 10057 10060
10055 10049 10043 10038 10034 10029 10024 10020 10016 10012 10010 10008 10006 10003 10000 9998 9996 9993 9989 9988 9989 9988 9988 9988 9988 9987 9985 9983 9981 9979 9978 9976 9974 9972 9970 9969 9968 9967 9967 9967 9967 9968 9969 9970 9971 9971 9971 9972 9974 9977 9979 9980 9981 9982 9984 9985 9986 9986 9986 9987 9989 9991 9993 9995 9997 9999 10000 10004 10007 10010 10013 10016 10018 10021 10024 10026 10029 10032 10034 10034 10034 10036 10037 10037 10039
10036 10030 10025 10021 10016 10011 10006 10002 9998 9994 9991 9988 9986 9984 9982 9979 9977 9974 9971 9970 9970 9969 9968 9968 9968 9967 9967 9965 9962 9959 9957 9956 9955 9954 9952 9950 9949 9949 9949 9949 9948 9949 9950 9951 9952 9951 9951 9952 9953 9955 9957 9959 9961 9962 9963 9964 9966 9966 9966 9967 9968 9970 9971 9973 9975 9978 9980 9982 9985 9988 9991 9994 9997 10001 10004 10006 10010 10014 10015 10015 10015 10018 10019 10019 10020
10019 10013 10009 10004 10000 9994 9989 9984 9981 9978 9974 9970 9968 9965 9963 9961 9959 9956 9953 9951 9951 9951 9951 9950 9948 9948 9948 9946 9944 9942 9939 9936 9935 9935 9934 9931 9931 9930 9930 9929 9929 9929 9930 9932 9933 9932 9932 9933 9933 9934 9937 9939 9941 9942 9943 9944 9945 9946 9947 9948 9949 9950 9951 9952 9953 9956 9958 9961 9963 9965 9969 9972 9975 9979 9983 9986 9990 9993 9995 9996 9997 9999 10001 10001 10003
10004 9997 9992 9988 9983 9978 9973 9968 9964 9961 9958 9955 9951 9948 9944 9942 9941 9939 9936 9933 9931 9931 9932 9933 9932 9931 9930 9928 9925 9924 9923 9919 9915 9915 9915 9913 9912 9912 9911 9910 9910 9910 9911 9912 9913 9913 9914 9914 9914 9915 9917 9918 9920 9922 9923 9925 9926 9926 9927 9929 9931 9931 9932 9932 9933 9934 9937 9939 9941 9944 9947 9950 9954 9957 9961 9965 9969 9972 9974 9976 9979 9981 9983 9984 9986
9989 9982 9976 9971 9966 9962 9957 9953 9948 9945 9942 9939 9937 9933 9928 9923 9921 9921 9920 9918 9914 9912 9912 9914 9915 9915 9914 9911 9907 9905 9904 9902 9899 9897 9896 9895 9894 9894 9893 9892 9891 9891 9892 9893 9893 9893 9894 9895 9895 9896 9897 9898 9900 9902 9903 9905 9907 9908 9909 9909 9911 9913 9914 9914 9914 9914 9916 9919 9921 9924 9926 9929 9933 9937 9940 9943 9948 9951 9953 9955 9958 9962 9965 9968 9969
9974 9968 9962 9957 9951 9946 9942 9938 9934 9930 9927 9924 9921 9918 9915 9910 9904 9900 9900 9901 9899 9896 9894 9895 9897 9898 9897 9896 9893 9889 9886 9884 9882 9880 9878 9877 9876 9875 9875 9874 9872 9872 9875 9876 9875 9874 9875 9875 9876 9877 9878 9878 9880 9882 9883 9885 9887 9889 9890 9891 9891 9893 9895 9896 9896 9896 9897 9899 9902 9904 9906 9909 9913 9916 9919 9923 9927 9930 9932 9935 9938 9942 9946 9949 9951
9960 9954 9949 9943 9937 9931 9927 9923 9919 9916 9913 9909 9905 9902 9900 9897 9892 9886 9881 9880 9880 9880 9879 9878 9879 9880 9879 9879 9878 9875 9871 9867 9864 9863 9862 9861 9860 9859 9858 9856 9854 9854 9857 9858 9858 9857 9857 9857 9858 9859 9860 9860 9861 9862 9864 9866 9868 9869 9871 9872 9873 9874 9876 9877 9878 9878 9879 9881 9883 9885 9887 9890 9893 9896 9899 9903 9907 9910 9913 9916 9919 9923 9927 9930 9932
9946 9940 9935 9930 9924 9918 9913 9908 9905 9902 9898 9895 9891 9888 9885 9882 9880 9875 9869 9864 9860 9859 9860 9861 9862 9863 9862 9862 9862 9860 9856 9852 9849 9847 9847 9846 9844 9843 9842 9840 9838 9838 9839 9841 9841 9840 9840 9840 9840 9841 9842 9843 9844 9845 9846 9847 9849 9851 9853 9854 9856 9856 9857 9858 9860 9861 9862 9864 9866 9868 9870 9872 9874 9877 9880 9884 9888 9891 9894 9897 9899 9903 9907 9911 9913
9932 9926 9921 9917 9912 9905 9900 9895 9891 9888 9884 9881 9877 9874 9871 9868 9865 9862 9859 9854 9848 9843 9841 9841 9843 9845 9846 9846 9846 9844 9842 9838 9835 9833 9832 9831 9830 9829 9827 9825 9823 9822 9823 9824 9826 9825 9824 9823 9824 9824 9825 9826 9827 9828 9829 9830 9832 9834 9836 9837 9839 9840 9841 9841 9842 9843 9845 9847 9849 9851 9853 9854 9857 9859 9862 9866 9870 9873 9875 9878 9881 9884 9888 9892 9895
9919 9913 9908 9904 9899 9893 9887 9883 9879 9875 9872 9867 9864 9861 9858 9855 9852 9849 9845 9842 9838 9834 9828 9825 9824 9825 9827 9829 9829 9827 9826 9824 9822 9820 9819 9817 9816 9814 9813 9811 9809 9808 9807 9808 9810 9810 9809 9808 9808 9808 9808 9809 9810 9811 9813 9814 9815 9817 9819 9821 9822 9823 9824 9825 9826 9827 9828 9830 9833 9835 9837 9839 9841 9843 9846 9850 9853 9855 9858 9861 9863 9867 9871 9874 9877
9905 9900 9895 9891 9886 9880 9875 9871 9867 9863 9859 9855 9851 9848 9844 9841 9839 9836 9832 9829 9826 9822 9818 9814 9811 9809 9809 9811 9812 9811 9809 9807 9806 9806 9806 9804 9802 9801 9799 9797 9795 9794 9792 9792 9794 9794 9794 9794 9794 9793 9793 9793 9794 9795 9796 9798 9800 9801 9803 9805 9806 9807 9808 9809 9810 9811 9812 9814 9816 9819 9822 9824 9826 9828 9830 9834 9837 9839 9841 9845 9848 9851 9854 9858 9860
9893 9888 9883 9878 9873 9868 9863 9859 9854 9851 9847 9843 9839 9836 9832 9828 9825 9823 9820 9816 9813 9810 9807 9803 9800 9797 9795 9794 9795 9795 9793 9791 9791 9791 9791 9790 9789 9788 9786 9785 9783 9781 9779 9778 9778 9779 9779 9779 9779 9779 9779 9778 9779 9779 9781 9782 9784 9786 9788 9790 9791 9792 9793 9794 9795 9797 9798 9799 9801 9804 9806 9809 9811 9814 9816 9818 9821 9824 9826 9829 9833 9836 9839 9842 9845
9881 9876 9872 9867 9862 9857 9852 9847 9843 9838 9834 9831 9827 9824 9820 9817 9813 9809 9806 9803 9800 9798 9795 9791 9788 9786 9784 9782 9780 9779 9777 9776 9776 9776 9775 9775 9775 9775 9774 9772 9770 9768 9767 9765 9765 9764 9764 9764 9765 9765 9765 9765 9765 9765 9766 9767 9769 9771 9773 9775 9776 9778 9779 9779 9780 9782 9783 9785 9786 9789 9791 9794 9797 9799 9802 9804 9806 9809 9812 9815 9818 9822 9824 9827 9829
9870 9864 9859 9855 9851 9846 9841 9836 9832 9827 9823 9819 9815 9811 9808 9804 9801 9797 9794 9791 9788 9785 9782 9779 9776 9775 9773 9771 9768 9766 9763 9760 9761 9761 9761 9760 9760 9760 9761 9760 9759 9757 9755 9753 9752 9751 9750 9751 9751 9752 9752 9752 9752 9752 9753 9754 9754 9756 9758 9760 9762 9764 9765 9766 9766 9768 9769 9771 9773 9775 9777 9780 9783 9785 9788 9791 9793 9795 9798 9801 9804 9807 9810 9813 9815
9859 9853 9847 9843 9839 9835 9829 9825 9820 9816 9812 9808 9804 9800 9796 9793 9789 9786 9782 9779 9776 9773 9770 9767 9765 9763 9761 9759 9757 9755 9752 9748 9746 9746 9746 9745 9745 9745 9745 9746 9746 9746 9744 9742 9740 9738 9737 9737 9738 9739 9739 9739 9739 9739 9740 9741 9742 9742 9744 9746 9748 9750 9752 9752 9753 9754 9755 9758 9760 9762 9764 9767 9770 9772 9775 9777 9780 9782 9785 9788 9791 9794 9797 9799 9801
9848 9842 9836 9831 9827 9822 9818 9813 9808 9804 9800 9796 9792 9789 9785 9781 9777 9774 9771 9767 9765 9762 9758 9755 9753 9751 9749 9748 9746 9744 9741 9738 9735 9733 9732 9732 9731 9730 9730 9731 9732 9733 9733 9731 9729 9727 9725 9724 9725 9726 9726 9726 9726 9727 9727 9729 9730 9730 9731 9733 9734 9736 9738 9740 9741 9742 9743 9744 9747 9750 9752 9754 9757 9760 9762 9765 9767 9770 9772 9775 9778 9781 9784 9786 9788
9839 9832 9826 9821 9815 9811 9806 9802 9797 9792 9788 9784 9780 9776 9773 9770 9766 9762 9759 9756 9753 9750 9747 9744 9741 9739 9737 9736 9735 9733 9730 9728 9725 9723 9721 9719 9718 9717 9717 9716 9717 9718 9719 9719 9718 9716 9714 9713 9713 9713 9714 9714 9714 9714 9715 9716 9718 9718 9719 9720 9722 9723 9725 9726 9728 9729 9731 9732 9734 9737 9740 9742 9745 9747 9750 9752 9755 9758 9760 9763 9766 9769 9771 9774 9776
9829 9823 9817 9811 9806 9801 9796 9792 9787 9782 9777 9773 9769 9765 9762 9759 9755 9751 9747 9744 9741 9738 9736 9733 9730 9727 9724 9723 9722 9721 9719 9717 9715 9713 9710 9708 9706 9705 9704 9704 9704 9705 9706 9706 9706 9705 9704 9703 9702 9702 9703 9703 9702 9702 9703 9704 9706 9707 9707 9708 9710 9711 9712 9714 9715 9717 9719 9721 9723 9725 9728 9730 9733 9736 9738 9741 9743 9746 9748 9751 9754 9756 9759 9761 9764
9819 9813 9807 9801 9795 9790 9785 9781 9776 9772 9767 9763 9758 9754 9750 9747 9744 9740 9736 9733 9729 9726 9724 9722 9719 9716 9713 9711 9710 9709 9708 9706 9704 9703 9701 9699 9696 9694 9693 9692 9691 9692 9692 9693 9693 9693 9693 9692 9692 9691 9692 9692 9691 9691 9691 9692 9693 9695 9696 9697 9698 9700 9701 9702 9703 9705 9707 9709 9711 9714 9716 9719 9721 9724 9726 9729 9732 9734 9737 9739 9742 9744 9747 9750 9752
9809 9803 9797 9791 9785 9780 9775 9770 9765 9761 9757 9753 9748 9744 9740 9737 9733 9729 9726 9722 9718 9715 9712 9709 9707 9705 9702 9700 9698 9697 9695 9694 9693 9692 9691 9689 9687 9685 9683 9681 9680 9680 9680 9681 9681 9681 9681 9681 9681 9681 9681 9682 9681 9681 9680 9681 9682 9683 9685 9685 9687 9688 9690 9691 9692 9694 9696 9698 9700 9702 9705 9707 9710 9712 9715 9718 9720 9723 9725 9728 9730 9733 9736 9738 9741
9799 9793 9787 9782 9776 9770 9765 9760 9755 9750 9746 9742 9738 9734 9730 9726 9723 9719 9716 9713 9709 9705 9702 9698 9696 9694 9691 9689 9687 9685 9684 9683 9682 9681 9680 9679 9678 9675 9673 9672 9670 9670 9669 9669 9669 9669 9670 9670 9671 9671 9671 9671 9671 9671 9671 9671 9671 9672 9673 9674 9676 9677 9679 9681 9682 9684 9685 9687 9689 9691 9694 9696 9699 9701 9704 9707 9709 9712 9714 9717 9719 9722 9725 9727 9730
9788 9782 9776 9771 9765 9760 9755 9750 9745 9741 9736 9732 9727 9723 9719 9716 9712 9709 9706 9703 9699 9696 9693 9689 9685 9683 9680 9678 9676 9675 9673 9671 9671 9670 9669 9668 9667 9666 9664 9663 9661 9660 9659 9659 9659 9658 9658 9659 9660 9660 9661 9661 9662 9662 9661 9661 9661 9662 9663 9664 9665 9666 9669 9670 9672 9673 9675 9677 9679 9681 9683 9686 9688 9691 9693 9696 9699 9701 9704 9706 9709 9711 9714 9717 9720
9778 9772 9766 9760 9755 9749 9745 9740 9735 9731 9727 9722 9717 9713 9709 9705 9702 9698 9695 9692 9689 9686 9684 9680 9677 9674 9671 9668 9666 9664 9663 9661 9660 9659 9658 9657 9656 9655 9654 9653 9652 9651 9650 9649 9649 9649 9648 9648 9649 9650 9651 9651 9652 9652 9652 9651 9651 9652 9653 9654 9655 9656 9658 9660 9662 9663 9665 9667 9669 9671 9673 9675 9678 9680 9683 9686 9688 9691 9693 9696 9698 9701 9704 9707 9710
9768 9762 9756 9751 9745 9739 9734 9729 9725 9721 9717 9713 9708 9704 9699 9695 9692 9689 9685 9682 9679 9676 9674 9671 9668 9665 9662 9660 9657 9654 9653 9651 9650 9649 9648 9647 9646 9645 9644 9644 9643 9642 9641 9640 9640 9639 9639 9639 9639 9640 9641 9642 9642 9643 9643 9642 9642 9642 9643 9644 9645 9646 9648 9650 9652 9654 9655 9657 9659 9661 9663 9666 9668 9671 9673 9675 9678 9680 9683 9686 9688 9691 9694 9697 9700
9759 9753 9747 9741 9736 9730 9725 9720 9715 9711 9707 9703 9699 9694 9690 9686 9682 9679 9676 9673 9669 9666 9663 9661 9659 9656 9654 9651 9648 9645 9643 9641 9640 9639 9638 9637 9636 9635 9634 9634 9633 9633 9632 9631 9631 9630 9630 9630 9630 9631 9632 9632 9633 9633 9633 9633 9633 9633 9634 9635 9636 9637 9639 9641 9643 9644 9646 9648 9649 9651 9654 9656 9659 9661 9663 9666 9668 9671 9673 9676 9679 9682 9684 9687 9690